Weather in Pankratovo

Russia / Kostroma Oblast     59°09′49″N   43°29′10″E
temp.,
°C
wind,
m/s
gust,
m/s
humid.,
%
clouds,
%
prec.,
mm/h
press.,
hPa
HPBL,
m
15 april, thu
thu1500:00+10sw31081100 0.0 1018270
03:00+8n3695100 0.0 1019179
06:00+7nne3892100 0.0 1020457
09:00+6nne4985100 0.0 1022543
12:00+5nne51086100 0.0 1024595
15:00+5ne398498 0.1 1025584
18:00+7ene267497 0.1 1026313
21:00+4ne41168100 0.1 1027501
16 april, fri
fri1600:00+2ne3127343 0.0 1029361
03:000ne311815 0.0 1030265
06:000ne3107845 0.0 1030330
09:00+6ene47525 0.0 1031742
12:00+9ene45400 0.0 10301115
15:00+10ne45360 0.0 10301275
18:00+9ne36480 0.0 1030265
21:00+4ne25680 0.0 103183
17 april, sat
sat1700:00+2ne26750 0.0 1032104
03:00+1ne24770 0.0 103283
06:00+1nne26780 0.0 1033149
09:00+7ne35591 0.0 1033691
12:00+10nne34465 0.0 10321466
15:00+11nne35405 0.0 10311568
18:00+9nne25505 0.0 1030250
21:00+5n26692 0.0 1031109
18 april, sun
sun1800:00+3n25741 0.0 103193
03:00+2n28812 0.0 1031146
06:00+2n39825 0.0 1032266
09:00+7nne36605 0.0 1032793
12:00+10nne464840 0.0 10321647
15:00+8ne565696 0.0 10331276
18:00+6nne255692 0.0 10341144
21:00+3ene2855100 0.0 1035239
19 april, mon
mon1900:000e276652 0.0 1037162
03:00−1e22698 0.0 103846
06:000ese24645 0.0 1039133
09:00+5se23401 0.0 1039887
12:00+8se23335 0.0 10381545
15:00+9sse22325 0.0 10371642
18:00+7se23435 0.0 103686
21:00+3sse22585 0.0 103735